Melbourne Airport, Australia

6:48 AM AEDT on February 20, 2018 (GMT +1100)
Melbourne International

Weather History for YMML - May, 2013

Change the Weather History Date:

Wednesday, May 29, 2013

  Actual Average Record
Temperature  
Mean Temperature 54 °F -  
Max Temperature 64 °F 55 °F 66 °F (1998)
Min Temperature 44 °F 42 °F 39 °F (2000)
Degree Days  
Heating Degree Days 11    
Growing Degree Days 4 (Base 50)    
Moisture  
Dew Point 43 °F    
Average Humidity 59    
Maximum Humidity 93    
Minimum Humidity 27    
Precipitation  
Precipitation 0.01 in 0.05 in - ()
Sea Level Pressure  
Sea Level Pressure 30.23 in    
Wind  
Wind Speed 12 mph ()    
Max Wind Speed 22 mph    
Max Gust Speed 32 mph    
Visibility 11.6 miles    
Events Rain    
Averages and records for this station are not official NWS values.
T = Trace of Precipitation, MM = Missing Value Source: Averaged Metar Reports

Daily Weather History Graph

Daily Weather History Graph

Search for Another Location

Airport or City:

Trip Planner

Search our weather history database for the weather conditions in past years. The results will help you decide how hot, cold, wet, or windy it might be!

Date:

Astronomy

May. 29, 2013 Rise Set
Actual Time 7:24 AM AEST 5:11 PM AEST
Civil Twilight 6:55 AM AEST 5:40 PM AEST
Nautical Twilight 6:23 AM AEST 6:12 PM AEST
Astronomical Twilight 5:51 AM AEST 6:44 PM AEST
Moon 9:49 PM AEST (5/29) 10:51 AM AEST (5/29)
Length of Visible Light 10h 44m
Length of Day
9h 46m
Waning Gibbous, 79% of the Moon is Illuminated
May 29
Waning Gibbous
Jun 1
Last Quarter
Jun 9
New
Jun 17
First Quarter
Jun 23
Full

Hourly Weather History & Observations

Time (AEST) Temp. Windchill Dew Point Humidity Pressure Visibility Wind Dir Wind Speed Gust Speed Precip Events Conditions
12:00 AM 51 °F - 45 °F 72% 30.29 in 19 mi NNE 9.2 mph - -   Partly Cloudy
12:00 AM 51.8 °F - 44.6 °F 76% 30.27 in - NNE 9.2 mph - N/A   Clear
1:00 AM 53 °F - 45 °F 65% 30.28 in - ENE 3.5 mph - -  
1:00 AM 53.6 °F - 44.6 °F 72% 30.27 in - ENE 3.5 mph - N/A   Clear
2:00 AM 53.6 °F - 46.4 °F 77% 30.24 in - North 6.9 mph - N/A   Clear
3:00 AM 53 °F - 46 °F 69% 30.27 in 19 mi North 10.4 mph - -   Partly Cloudy
3:00 AM 53.6 °F - 46.4 °F 77% 30.24 in - North 10.4 mph - N/A   Clear
3:20 AM 53.6 °F - 46.4 °F 77% 30.24 in - North 17.3 mph 31.1 mph N/A   Clear
4:00 AM 51 °F - 46 °F 75% 30.27 in - North 16.1 mph - -  
4:00 AM 51.8 °F - 46.4 °F 82% 30.27 in - North 16.1 mph - N/A   Clear
5:00 AM 46.4 °F 41.9 °F 44.6 °F 93% 30.27 in - North 9.2 mph - N/A   Clear
6:00 AM 51 °F - 45 °F 74% 30.29 in 19 mi North 15.0 mph - -   Partly Cloudy
6:00 AM 51.8 °F - 44.6 °F 76% 30.27 in - North 15.0 mph - N/A   Clear
7:00 AM 51 °F - 45 °F 74% 30.29 in - North 17.3 mph - -  
7:00 AM 50.0 °F - 44.6 °F 82% 30.27 in - North 17.3 mph - N/A   Clear
8:00 AM 51.8 °F - 44.6 °F 76% 30.27 in - North 13.8 mph - N/A   Clear
9:00 AM 52 °F - 45 °F 69% 30.31 in 19 mi North 16.1 mph - -   Partly Cloudy
9:00 AM 51.8 °F - 44.6 °F 76% 30.30 in - North 16.1 mph - N/A   Clear
10:00 AM 55 °F - 44 °F 56% 30.30 in - North 19.6 mph - -  
10:00 AM 55.4 °F - 44.6 °F 67% 30.27 in - North 19.6 mph - N/A   Clear
10:30 AM 55.4 °F - 44.6 °F 67% 30.27 in - North 17.3 mph - N/A   Clear
11:00 AM 57.2 °F - 44.6 °F 63% 30.27 in 6.2 mi North 17.3 mph - N/A   Scattered Clouds
11:30 AM 59.0 °F - 42.8 °F 55% 30.24 in 6.2 mi North 19.6 mph - N/A   Mostly Cloudy
11:52 AM 60.8 °F - 42.8 °F 52% 30.24 in 6.2 mi North 19.6 mph 31.1 mph N/A   Mostly Cloudy
12:00 PM 62 °F - 42 °F 36% 30.26 in 19 mi North 20.7 mph - -   Partly Cloudy
12:00 PM 60.8 °F - 42.8 °F 52% 30.24 in 6.2 mi North 20.7 mph - N/A   Mostly Cloudy
12:16 PM 60.8 °F - 41.0 °F 48% 30.24 in 6.2 mi North 19.6 mph 32.2 mph N/A   Mostly Cloudy
12:30 PM 60.8 °F - 39.2 °F 45% 30.24 in 6.2 mi North 21.9 mph - N/A   Mostly Cloudy
1:00 PM 63 °F - 40 °F 31% 30.23 in - North 19.6 mph - -  
1:00 PM 62.6 °F - 39.2 °F 42% 30.21 in 6.2 mi North 19.6 mph - N/A   Mostly Cloudy
1:30 PM 64.4 °F - 39.2 °F 40% 30.21 in - North 21.9 mph - N/A   Clear
2:00 PM 64.4 °F - 37.4 °F 37% 30.21 in - North 17.3 mph - N/A   Clear
2:30 PM 64.4 °F - 37.4 °F 37% 30.21 in - NNW 18.4 mph - N/A   Clear
3:00 PM 63 °F - 38 °F 27% 30.22 in 19 mi NNW 17.3 mph - -   Scattered Clouds
3:00 PM 62.6 °F - 37.4 °F 39% 30.21 in - NNW 17.3 mph - N/A   Clear
3:30 PM 62.6 °F - 39.2 °F 42% 30.21 in - North 11.5 mph - N/A   Clear
4:00 PM 63 °F - 38 °F 28% 30.22 in - North 12.7 mph - -  
4:00 PM 62.6 °F - 39.2 °F 42% 30.21 in 6.2 mi North 12.7 mph - N/A   Mostly Cloudy
4:30 PM 62.6 °F - 39.2 °F 42% 30.21 in 6.2 mi North 10.4 mph - N/A   Mostly Cloudy
5:00 PM 60.8 °F - 41.0 °F 48% 30.21 in - North 10.4 mph - N/A   Clear
5:30 PM 60.8 °F - 42.8 °F 52% 30.21 in - North 11.5 mph - N/A   Clear
6:00 PM 59 °F - 43 °F 44% 30.22 in 19 mi NNE 9.2 mph - -   Partly Cloudy
6:00 PM 59.0 °F - 42.8 °F 55% 30.21 in - NNE 9.2 mph - N/A   Clear
6:30 PM 59.0 °F - 42.8 °F 55% 30.21 in - NNE 9.2 mph - N/A   Clear
7:00 PM 59 °F - 43 °F 45% 30.22 in - North 10.4 mph - -  
7:00 PM 59.0 °F - 42.8 °F 55% 30.21 in - North 10.4 mph - N/A   Clear
7:30 PM 59.0 °F - 42.8 °F 55% 30.21 in - North 11.5 mph - N/A   Clear
8:00 PM 59.0 °F - 44.6 °F 59% 30.18 in - North 12.7 mph - N/A   Clear
8:30 PM 59.0 °F - 44.6 °F 59% 30.18 in - North 12.7 mph - N/A   Clear
9:00 PM 59 °F - 44 °F 48% 30.21 in 19 mi North 12.7 mph - -   Mostly Cloudy
9:00 PM 59.0 °F - 44.6 °F 59% 30.21 in - North 12.7 mph - N/A   Clear
9:30 PM 59.0 °F - 44.6 °F 59% 30.18 in - North 11.5 mph - N/A   Clear
10:00 PM 57 °F - 49 °F 67% 30.21 in - North 16.1 mph - -  
10:00 PM 57.2 °F - 48.2 °F 72% 30.18 in 6.2 mi North 16.1 mph - N/A Rain Light Rain Showers
10:30 PM 57.2 °F - 48.2 °F 72% 30.18 in 6.2 mi North 15.0 mph - N/A   Mostly Cloudy
11:00 PM 57.2 °F - 46.4 °F 67% 30.18 in - North 15.0 mph - N/A   Clear
11:06 PM 57.2 °F - 46.4 °F 67% 30.18 in - North 17.3 mph 28.8 mph N/A   Clear
11:30 PM 59.0 °F - 46.4 °F 63% 30.18 in - North 19.6 mph - N/A   Clear